Location: Artiguedieu
(43.5000°N, 0.5454°E)
Time: 00:29:33
(UTC+00:00)

Transit 2A Rocket - Pass Details

Date: 31 July 2021
Orbit: 586 x 916 km, 66.7° (Epoch: 19 September)

Event Time Altitude Azimuth Distance (km) Brightness Sun altitude
Rises 23:11:31 0° 326° (NW) 3,283 9.4 -27.3°
Reaches altitude 10° 23:13:52 10° 324° (NW) 2,399 8.4 -27.4°
Enters shadow 23:19:17 68° 251° (WSW) 920 5.2 -27.6°
Maximum altitude 23:19:24 68° 242° (WSW) 919 - -27.6°
Drops below altitude 10° 23:25:19 10° 161° (SSE) 2,559 - -27.8°
Sets 23:27:54 0° 159° (SSE) 3,517 - -27.9°
